Wind_Speed
35 35 36 39 43 45 47 50 52 54 55 59 62 63 65 67 69 71 72 74 76 78 79 80 81 82 82 83 84 84 85 85 85 87 88 89 91 90 88 84 87 87 86 86 85 83 82 80 80
37 39 41 41 41 42 44 46 48 52 54 58 61 63 65 67 68 71 73 76 78 80 83 86 86 88 89 91 92 93 94 94 94 93 93 93 93 94 96 95 94 89 91 91 90 91 87 86 86
32 31 31 34 37 38 40 43 46 48 51 53 56 60 63 65 67 71 72 74 78 80 81 84 87 89 92 95 97 100 101 103 104 103 103 101 101 102 101 101 100 100 99 94 95 97 94 92 91
25 27 29 31 31 32 35 37 39 43 48 52 53 56 57 58 63 68 69 70 73 78 82 84 86 90 94 96 98 100 103 106 109 110 112 112 111 109 109 109 107 106 106 105 102 96 97 101 98
22 23 24 23 25 29 30 34 34 35 42 50 54 54 57 60 58 59 63 67 71 72 73 78 84 87 89 94 97 101 104 107 111 113 115 116 118 119 118 117 115 114 113 112 111 110 107 104 103
16 16 17 17 16 24 21 29 37 38 40 36 38 45 52 53 56 62 63 64 66 72 74 72 79 85 89 92 94 98 101 106 111 114 115 117 119 121 125 125 125 122 120 117 115 116 116 114 111
13 14 17 18 18 24 31 36 42 42 42 43 46 47 48 49 53 57 57 62 71 75 75 78 81 82 92 96 98 99 101 106 114 116 117 117 122 124 122 130 131 130 130 126 124 120 117 120 119
5 10 17 19 22 27 35 40 42 43 45 47 47 48 51 56 59 62 65 67 71 71 74 77 82 83 88 91 100 108 105 107 112 115 117 122 124 125 127 131 131 133 136 134 135 130 128 125 122
8 14 21 25 27 34 40 42 44 43 46 48 50 54 59 65 69 72 75 76 75 77 80 83 85 86 90 92 96 101 113 111 115 120 124 127 127 130 131 132 134 135 137 138 139 136 137 132 130
12 15 21 26 30 36 42 45 48 49 51 54 59 64 68 74 74 75 81 84 85 90 90 93 94 95 95 95 101 103 104 114 119 116 128 133 132 133 135 137 138 139 141 141 141 141 141 139 138
15 20 24 29 35 41 45 48 52 55 58 60 62 64 69 73 78 81 89 92 98 101 101 100 101 102 101 103 104 103 101 108 113 112 125 129 137 140 140 143 143 143 143 144 145 145 143 144 144
20 24 29 33 37 44 47 51 55 57 59 62 65 69 73 77 84 89 92 97 101 103 103 104 102 100 100 100 97 96 94 93 96 113 116 108 143 146 141 148 147 145 145 147 148 149 146 148 147
26 30 34 38 41 47 50 53 57 61 64 66 70 75 79 83 90 92 102 107 111 110 104 98 94 92 92 91 90 89 85 83 81 83 86 88 101 120 129 138 156 152 147 148 149 150 150 151 149
32 37 39 41 44 49 53 58 61 64 66 71 76 83 87 94 96 103 116 115 113 104 93 89 85 81 76 70 64 61 59 62 65 67 68 70 76 80 86 101 124 149 149 154 149 151 153 151 154
35 40 41 43 47 52 57 62 65 69 72 78 85 90 95 100 104 114 114 112 99 89 80 69 64 56 49 46 44 44 40 42 44 46 51 58 60 62 72 81 87 101 121 150 161 159 156 155 153
38 44 44 46 49 54 59 63 69 74 79 83 87 91 99 104 113 118 116 105 90 77 62 51 42 36 36 36 39 41 45 43 46 45 49 49 48 48 52 62 74 83 87 100 128 158 162 162 157
43 43 45 48 51 56 63 66 71 76 80 86 91 98 103 109 116 118 113 95 78 60 45 35 32 28 31 35 42 42 49 45 43 45 43 46 46 45 43 45 56 66 75 84 92 108 133 153 161
44 45 45 50 53 58 63 69 75 81 84 89 94 99 106 114 118 112 98 81 62 47 34 29 26 30 35 39 43 50 49 43 42 42 41 39 37 40 43 44 44 51 63 71 81 91 99 118 139
48 50 47 51 54 60 66 73 79 86 91 94 99 105 111 116 116 105 88 69 50 33 28 25 28 31 38 44 47 47 47 45 45 39 39 35 33 35 39 41 44 46 49 61 69 79 90 97 108
47 49 48 51 57 64 70 75 82 88 93 98 103 107 112 117 109 95 81 55 39 28 27 24 27 33 37 39 44 45 47 48 50 51 40 34 34 35 41 45 45 46 47 50 57 66 78 88 96
47 49 49 53 60 65 71 79 85 90 96 102 109 118 123 110 101 89 71 46 34 28 25 26 32 36 39 45 44 46 48 45 41 41 43 40 37 39 42 46 46 45 46 49 51 57 66 78 87
46 50 51 55 62 67 73 79 86 92 99 104 113 118 119 101 95 80 58 38 28 27 29 30 32 37 41 45 49 46 45 45 46 45 46 46 44 44 47 49 49 47 47 48 53 54 57 67 77
44 49 51 56 62 68 74 79 88 93 100 106 110 118 117 95 87 69 47 32 26 28 30 33 35 39 41 42 43 47 47 43 42 44 50 51 49 48 49 50 50 48 47 48 52 55 54 57 67
45 49 53 58 64 68 74 82 90 97 102 108 113 122 106 92 77 56 37 29 27 30 32 33 37 39 40 40 37 35 35 37 40 44 49 50 51 49 49 51 51 49 51 51 51 54 51 50 57
48 50 53 58 64 69 76 84 94 101 109 114 117 123 104 88 65 48 34 30 30 32 36 38 40 43 42 41 41 42 42 41 42 46 47 47 46 48 48 48 50 52 55 52 47 51 51 47 49
46 50 53 58 64 70 77 85 94 102 110 118 124 121 99 79 56 40 32 29 32 35 39 44 47 46 46 45 42 40 38 37 37 37 39 40 42 43 45 48 52 56 49 45 44 47 51 46 45
46 50 53 57 62 68 76 84 93 101 114 115 120 111 93 73 50 34 28 31 33 39 46 47 46 43 40 36 33 31 29 28 28 29 30 31 35 41 46 51 50 45 42 40 40 44 47 46 43
47 51 52 57 63 69 78 86 94 101 110 114 118 101 89 68 47 35 31 35 43 47 49 44 41 40 41 39 37 34 31 29 29 32 35 38 41 44 45 45 43 42 38 35 34 38 42 43 39
47 51 54 60 65 72 81 89 96 105 113 113 114 101 87 67 47 35 37 44 48 47 43 41 42 43 38 37 38 36 34 33 33 36 40 43 46 47 46 46 44 40 36 32 27 31 35 40 36
47 52 55 60 66 74 83 91 98 108 114 114 107 98 83 61 45 35 41 48 46 45 42 42 42 39 36 35 35 38 42 46 47 48 48 49 50 50 48 45 43 38 31 29 22 26 27 32 33
Wind_Direction
265 268 265 268 274 277 278 277 276 278 277 276 274 274 273 273 272 270 267 265 264 264 263 263 262 260 258 255 254 254 254 254 253 253 252 251 251 250 250 250 249 245 247 248 246 243 241 242 243
274 274 274 277 279 279 279 280 281 282 282 282 281 280 279 277 274 272 270 269 267 265 263 262 261 260 259 258 256 254 253 252 252 251 251 251 251 251 252 251 250 249 248 245 246 246 245 242 241
278 279 280 278 279 283 285 287 286 285 285 284 282 281 280 278 277 274 271 269 267 266 265 264 263 262 260 257 255 254 253 253 251 249 249 250 251 250 250 249 249 251 249 249 248 245 244 245 245
277 276 279 284 290 293 295 299 301 306 307 305 298 291 286 280 277 275 274 272 268 267 264 262 262 261 260 258 256 256 254 252 251 251 250 248 248 248 249 250 247 247 249 248 246 246 247 244 245
284 291 296 300 311 319 313 315 322 324 310 298 292 288 286 281 276 275 273 268 266 264 261 260 259 258 258 257 256 255 254 253 253 252 249 248 248 247 247 246 246 247 248 247 248 247 246 246 246
303 316 311 320 338 339 323 333 332 324 319 310 296 297 280 282 275 276 276 276 273 267 266 262 261 256 253 254 254 252 251 251 251 251 250 250 248 246 245 245 245 246 246 246 247 249 248 247 247
322 324 308 309 332 345 345 336 333 325 320 312 308 307 304 298 294 294 291 286 276 273 276 270 268 267 259 256 254 254 253 252 249 248 248 249 249 247 246 245 244 244 244 244 246 245 247 249 248
314 342 342 342 343 342 339 336 328 327 323 318 315 313 312 307 302 300 298 292 288 284 281 277 275 275 275 265 260 254 254 254 250 249 249 247 246 246 247 246 244 244 244 243 245 243 245 245 248
330 329 336 340 335 339 339 333 326 322 322 322 321 315 315 314 312 310 307 303 299 295 289 286 282 279 276 275 272 266 259 258 253 249 248 247 247 247 246 245 245 245 244 243 242 243 243 242 243
347 335 337 335 337 336 334 332 329 325 324 321 318 315 313 311 306 304 305 305 305 304 300 292 287 283 281 277 273 271 263 258 258 255 251 249 247 246 247 247 246 245 244 244 243 243 242 242 242
333 333 333 336 336 339 337 333 331 328 326 322 320 317 312 309 309 309 309 309 307 303 300 296 291 287 284 281 279 275 271 263 259 260 257 253 250 248 248 247 246 244 244 245 243 244 242 241 242
326 333 335 335 335 335 334 328 325 326 324 324 322 318 315 314 313 311 309 304 303 301 299 297 293 288 285 284 282 280 278 273 270 262 262 258 249 251 251 248 250 248 247 246 243 242 243 243 242
326 331 334 332 334 336 335 328 329 326 325 324 321 319 320 319 316 313 313 310 309 305 301 296 292 289 286 286 283 280 278 277 274 270 268 262 253 251 253 251 248 247 251 247 246 245 243 241 242
330 330 331 330 331 333 332 332 331 325 327 325 322 320 319 317 319 318 315 313 310 305 300 296 292 290 285 281 278 277 272 270 270 272 270 270 267 261 256 252 248 246 247 247 249 247 244 243 242
332 330 326 326 331 332 334 330 329 326 324 323 324 321 320 319 318 318 317 316 312 308 303 297 293 286 281 277 278 285 288 284 280 279 278 276 271 267 262 259 255 251 249 243 245 245 247 246 245
331 334 326 328 333 330 329 329 327 325 324 325 325 324 322 322 320 318 318 318 315 312 307 300 287 277 282 289 292 289 297 296 297 300 297 292 289 282 269 261 260 256 252 248 244 242 244 244 245
331 333 328 326 332 333 334 331 331 329 328 328 328 325 325 321 319 320 322 320 318 313 306 291 285 284 296 292 290 292 297 293 296 299 299 302 300 300 292 279 264 258 255 253 247 245 243 242 241
325 330 329 333 334 335 335 335 336 335 332 332 331 328 326 322 322 325 325 322 318 311 297 294 295 295 291 289 284 293 294 291 294 298 298 305 305 304 306 299 287 266 257 253 251 249 246 244 241
324 330 327 330 332 334 335 337 339 336 335 334 333 330 326 326 328 328 326 324 315 305 297 297 301 290 283 283 287 289 293 298 298 296 300 303 306 314 312 306 300 288 274 259 252 250 250 245 243
321 323 322 328 331 334 336 338 340 339 336 334 333 329 329 331 331 330 327 322 310 298 297 297 295 291 289 282 284 286 289 295 296 299 300 299 304 309 309 309 305 297 285 272 260 251 249 249 244
315 317 325 329 331 332 338 337 340 338 336 336 335 336 334 333 334 331 327 320 310 300 299 301 294 292 288 284 286 289 293 295 296 293 293 295 299 303 305 305 304 302 295 285 273 258 248 247 247
315 321 326 327 329 333 337 338 339 338 336 337 339 337 337 334 333 331 326 319 309 305 304 304 302 299 293 289 286 287 293 291 296 297 296 296 300 300 299 301 300 297 299 292 281 268 253 248 247
318 319 323 325 328 335 336 339 338 338 340 340 338 336 338 334 334 333 329 322 319 310 311 311 310 303 300 300 299 296 298 299 296 293 292 294 296 295 293 297 297 297 299 295 281 272 261 251 247
318 320 323 327 330 331 336 339 338 340 341 341 341 340 340 340 337 337 333 331 329 325 321 323 324 327 322 318 312 304 300 298 291 287 285 288 290 290 293 295 295 300 298 292 283 275 269 256 248
320 323 325 326 328 333 338 340 340 342 342 344 341 344 344 342 342 342 347 347 346 346 348 349 346 338 328 320 313 306 301 296 292 290 288 289 291 292 294 296 300 302 299 295 284 277 274 265 252
325 323 327 329 330 335 339 341 343 343 344 345 344 346 346 347 349 349 358 358 358 359 356 351 340 334 328 323 320 315 311 308 303 300 297 295 295 299 300 302 303 301 297 289 285 275 274 270 256
330 326 330 332 332 336 340 342 343 345 347 344 345 346 349 352 351 357 6 6 6 3 355 345 341 340 341 341 339 336 332 326 323 320 317 313 310 306 303 301 301 300 295 286 283 275 273 274 263
330 333 334 335 336 338 341 344 346 346 347 347 347 348 351 355 354 360 9 13 7 359 352 349 350 353 356 357 357 355 353 347 342 337 329 320 313 309 309 310 307 304 298 290 280 273 273 274 268
333 335 337 339 338 339 343 345 345 350 349 351 351 352 353 357 354 1 12 11 6 359 358 359 5 3 3 11 8 2 1 353 343 340 337 333 328 324 320 316 313 310 308 300 287 277 271 273 269
334 335 339 342 341 342 344 345 346 352 351 353 352 353 355 359 355 6 13 11 7 5 6 13 12 8 7 13 17 13 10 7 359 351 342 333 326 323 321 319 318 316 316 306 302 285 277 271 267
Height
10899 10896 10895 10894 10893 10890 10887 10884 10883 10881 10879 10876 10875 10874 10871 10868 10864 10861 10858 10854 10851 10848 10845 10841 10840 10839 10837 10836 10835 10834 10833 10833 10832 10832 10832 10833 10836 10837 10840 10842 10844 10844 10848 10851 10854 10858 10860 10862 10867
10893 10891 10890 10888 10886 10883 10880 10878 10875 10871 10868 10864 10862 10860 10856 10853 10850 10846 10841 10837 10833 10830 10828 10825 10824 10821 10817 10815 10814 10813 10812 10812 10811 10811 10810 10810 10812 10815 10818 10822 10825 10827 10831 10833 10836 10841 10844 10847 10849
10888 10886 10884 10882 10880 10879 10876 10873 10870 10866 10862 10858 10852 10847 10842 10837 10832 10827 10823 10820 10816 10812 10809 10803 10801 10798 10794 10792 10791 10788 10789 10788 10787 10786 10788 10791 10792 10793 10795 10798 10802 10806 10809 10814 10817 10821 10824 10827 10832
10885 10883 10881 10880 10879 10876 10872 10868 10864 10859 10853 10847 10841 10835 10830 10825 10819 10811 10806 10801 10796 10792 10787 10782 10778 10775 10771 10769 10765 10764 10764 10760 10760 10762 10764 10764 10766 10769 10773 10775 10779 10784 10785 10789 10794 10799 10804 10808 10813
10882 10881 10879 10877 10874 10870 10866 10863 10860 10853 10845 10838 10831 10825 10818 10811 10805 10798 10792 10786 10778 10772 10765 10759 10755 10752 10747 10743 10740 10739 10737 10734 10733 10735 10734 10737 10740 10743 10746 10749 10752 10756 10762 10766 10769 10775 10781 10786 10792
10880 10878 10875 10873 10871 10867 10864 10860 10855 10847 10839 10832 10826 10818 10810 10801 10795 10787 10777 10769 10763 10755 10748 10742 10737 10729 10723 10718 10713 10709 10707 10705 10703 10705 10705 10706 10709 10713 10716 10721 10724 10732 10737 10740 10749 10751 10756 10762 10768
10877 10875 10872 10871 10869 10864 10860 10853 10846 10837 10829 10822 10815 10808 10799 10791 10782 10773 10764 10755 10746 10738 10730 10722 10713 10705 10700 10694 10689 10686 10681 10680 10677 10674 10674 10677 10679 10680 10686 10691 10694 10701 10708 10714 10720 10726 10731 10736 10743
10875 10872 10870 10867 10863 10858 10852 10845 10837 10827 10820 10810 10802 10794 10785 10776 10765 10755 10744 10734 10726 10717 10707 10698 10688 10681 10673 10668 10661 10658 10651 10650 10646 10646 10645 10645 10648 10649 10654 10659 10663 10669 10675 10684 10691 10698 10705 10713 10719
10874 10871 10866 10862 10856 10850 10843 10835 10826 10817 10808 10799 10790 10780 10769 10757 10745 10733 10722 10712 10702 10692 10682 10671 10663 10654 10646 10638 10633 10627 10621 10614 10611 10611 10612 10613 10615 10620 10620 10627 10632 10636 10643 10651 10658 10667 10676 10683 10692
10872 10868 10863 10857 10850 10843 10834 10824 10815 10806 10797 10787 10776 10764 10754 10743 10731 10718 10705 10691 10676 10662 10648 10636 10626 10618 10611 10605 10596 10587 10584 10581 10580 10578 10580 10580 10582 10584 10587 10593 10597 10604 10611 10617 10624 10635 10645 10654 10662
10868 10864 10858 10851 10844 10836 10827 10817 10806 10796 10785 10773 10761 10750 10736 10721 10707 10693 10679 10662 10647 10631 10616 10602 10592 10582 10574 10565 10557 10547 10548 10543 10542 10545 10548 10544 10545 10548 10550 10552 10560 10564 10573 10584 10592 10601 10614 10621 10632
10864 10858 10852 10845 10837 10828 10818 10808 10796 10785 10773 10761 10749 10734 10718 10702 10685 10670 10656 10639 10622 10604 10587 10570 10556 10547 10537 10529 10521 10516 10512 10510 10504 10502 10503 10505 10507 10513 10518 10520 10520 10529 10537 10546 10554 10566 10576 10588 10599
10859 10852 10846 10838 10829 10819 10809 10798 10786 10772 10759 10747 10732 10716 10699 10683 10667 10648 10629 10605 10585 10565 10549 10536 10523 10513 10504 10496 10491 10485 10482 10477 10471 10469 10466 10467 10470 10474 10474 10478 10486 10493 10500 10511 10520 10528 10541 10552 10562
10854 10846 10839 10831 10822 10812 10801 10787 10774 10760 10748 10733 10717 10700 10683 10664 10644 10622 10600 10575 10553 10530 10514 10501 10491 10484 10478 10470 10466 10463 10460 10456 10451 10447 10445 10440 10441 10442 10440 10438 10440 10453 10464 10474 10486 10494 10500 10514 10526
10849 10842 10834 10825 10815 10803 10790 10777 10766 10752 10738 10722 10705 10685 10663 10640 10616 10594 10567 10544 10520 10501 10486 10474 10465 10460 10455 10452 10448 10445 10443 10440 10436 10432 10427 10421 10416 10416 10415 10412 10412 10414 10422 10434 10444 10459 10467 10480 10489
10844 10835 10826 10817 10807 10797 10785 10771 10757 10742 10726 10708 10689 10666 10643 10617 10590 10565 10541 10514 10492 10473 10460 10453 10449 10446 10442 10438 10436 10432 10430 10427 10422 10418 10413 10406 10399 10393 10392 10392 10388 10388 10391 10397 10404 10415 10427 10443 10455
10838 10831 10822 10811 10802 10791 10777 10764 10750 10734 10715 10695 10672 10647 10621 10593 10564 10537 10512 10488 10470 10456 10447 10442 10437 10434 10431 10429 10425 10421 10419 10415 10412 10407 10401 10395 10387 10379 10374 10371 10369 10367 10367 10367 10370 10375 10387 10400 10412
10835 10827 10817 10807 10796 10785 10772 10757 10741 10721 10700 10677 10653 10629 10604 10573 10544 10519 10491 10470 10455 10445 10438 10432 10428 10425 10423 10420 10416 10412 10407 10403 10399 10394 10390 10384 10378 10370 10362 10355 10350 10349 10346 10345 10346 10348 10353 10361 10371
10826 10818 10809 10801 10791 10778 10762 10746 10727 10705 10683 10659 10636 10612 10587 10557 10526 10500 10475 10455 10441 10435 10429 10424 10421 10419 10415 10410 10406 10400 10394 10389 10385 10382 10377 10372 10365 10358 10350 10343 10336 10330 10327 10324 10325 10323 10323 10328 10333
10822 10814 10806 10795 10782 10768 10752 10734 10716 10694 10672 10649 10630 10601 10571 10539 10503 10479 10460 10444 10434 10427 10421 10418 10414 10410 10405 10400 10394 10389 10384 10377 10372 10367 10362 10358 10352 10344 10337 10329 10320 10314 10309 10303 10300 10302 10298 10299 10302
10817 10808 10798 10785 10772 10759 10746 10725 10706 10685 10661 10637 10608 10574 10538 10512 10489 10463 10447 10434 10426 10420 10415 10410 10406 10401 10396 10391 10384 10378 10372 10366 10362 10357 10351 10345 10338 10331 10324 10315 10307 10298 10292 10285 10280 10277 10275 10272 10275
10809 10799 10789 10778 10765 10752 10736 10719 10700 10677 10652 10625 10593 10557 10528 10499 10472 10454 10436 10425 10417 10412 10408 10402 10397 10392 10387 10381 10374 10367 10362 10355 10349 10342 10336 10329 10323 10315 10308 10299 10290 10282 10274 10268 10262 10256 10253 10250 10249
10803 10794 10783 10772 10758 10745 10730 10715 10692 10671 10648 10616 10589 10552 10517 10487 10461 10439 10426 10417 10411 10407 10401 10395 10390 10384 10378 10371 10364 10356 10349 10342 10336 10329 10320 10313 10307 10300 10291 10281 10273 10265 10258 10251 10242 10235 10231 10229 10228
10798 10788 10776 10764 10750 10737 10723 10703 10682 10658 10637 10609 10572 10539 10505 10472 10448 10432 10420 10412 10408 10403 10398 10390 10382 10372 10364 10356 10349 10342 10335 10327 10320 10313 10306 10298 10290 10283 10275 10265 10257 10248 10240 10232 10224 10216 10212 10210 10208
10791 10782 10771 10759 10745 10730 10713 10694 10666 10640 10613 10588 10558 10523 10489 10463 10440 10424 10415 10410 10405 10399 10390 10381 10373 10363 10354 10345 10337 10328 10321 10313 10305 10298 10290 10283 10277 10270 10261 10251 10241 10231 10222 10213 10205 10197 10192 10189 10189
10787 10776 10765 10753 10737 10721 10705 10685 10660 10633 10605 10571 10532 10506 10481 10457 10437 10424 10415 10410 10404 10396 10387 10377 10367 10357 10345 10335 10326 10316 10307 10299 10292 10285 10279 10271 10263 10256 10247 10236 10226 10216 10205 10196 10188 10180 10174 10171 10170
10783 10772 10762 10749 10735 10720 10702 10684 10660 10632 10597 10571 10537 10506 10479 10455 10439 10427 10417 10410 10402 10392 10382 10371 10360 10349 10340 10328 10318 10309 10301 10293 10286 10278 10270 10262 10253 10243 10233 10222 10212 10200 10190 10181 10174 10165 10159 10154 10153
10779 10767 10756 10744 10729 10712 10693 10677 10656 10631 10605 10571 10530 10498 10472 10453 10439 10427 10417 10408 10398 10387 10375 10365 10356 10345 10334 10323 10315 10306 10297 10289 10281 10272 10263 10253 10243 10231 10219 10207 10195 10184 10175 10168 10160 10153 10146 10141 10138
10773 10762 10750 10736 10719 10703 10687 10668 10645 10623 10593 10564 10529 10498 10471 10451 10437 10427 10417 10407 10395 10384 10373 10361 10350 10340 10331 10321 10313 10305 10296 10288 10279 10268 10255 10243 10230 10217 10204 10191 10180 10170 10162 10155 10148 10141 10135 10128 10125
10768 10756 10744 10731 10715 10696 10678 10659 10634 10612 10587 10554 10525 10496 10473 10452 10440 10429 10419 10405 10393 10381 10370 10358 10350 10344 10336 10326 10316 10308 10296 10285 10274 10262 10249 10234 10217 10203 10190 10178 10167 10158 10151 10144 10138 10129 10124 10118 10114